Willimantic, CT

1:18 AM EDT on September 19, 2019 (GMT -0400)
Windham

Weather History for KIJD - August, 2019

Change the Weather History Date:

Monday, August 19, 2019

  Actual Average Record
Temperature  
Mean Temperature 80 °F -  
Max Temperature 90 °F 79 °F 92 °F (1987)
Min Temperature 69 °F 54 °F 38 °F (1953)
Cooling Degree Days 14    
Growing Degree Days 30 (Base 50)    
Moisture  
Dew Point 70 °F    
Average Humidity 88    
Maximum Humidity 100    
Minimum Humidity 54    
Precipitation  
Precipitation 0.00 in - - ()
Sea Level Pressure  
Sea Level Pressure 29.98 in    
Wind  
Wind Speed 2 mph ()    
Max Wind Speed 12 mph    
Max Gust Speed 18 mph    
Visibility 7.1 miles    
Events      
Averages and records for this station are not official NWS values.
T = Trace of Precipitation, MM = Missing Value Source: Averaged Metar Reports

Daily Weather History Graph

Daily Weather History Graph

Search for Another Location

Airport or City:

Astronomy

Aug. 19, 2019 Rise Set
Actual Time 6:00 AM EDT 7:43 PM EDT
Civil Twilight 5:31 AM EDT 8:12 PM EDT
Nautical Twilight 4:55 AM EDT 8:48 PM EDT
Astronomical Twilight 4:16 AM EDT 9:26 PM EDT
Moon 9:59 PM EDT 9:42 AM EDT
Length of Visible Light 14h 41m
Length of Day
13h 42m
Waning Gibbous, 85% of the Moon is Illuminated
Aug 19
Waning Gibbous
Aug 23
Last Quarter
Aug 30
New
Sep 5
First Quarter
Sep 14
Full

Hourly Weather History & Observations

Time (EDT) Temp. Heat Index Dew Point Humidity Pressure Visibility Wind Dir Wind Speed Gust Speed Precip Events Conditions
12:52 AM 71.1 °F - 71.1 °F 100% 29.95 in 10.0 mi Calm Calm - N/A   Clear
1:34 AM 71.1 °F - 70.0 °F 96% 29.95 in 10.0 mi Calm Calm - N/A   Partly Cloudy
1:50 AM 71.6 °F - 69.8 °F 94% 29.96 in 7.0 mi Calm Calm - N/A   Mostly Cloudy
1:52 AM 71.1 °F - 70.0 °F 96% 29.96 in 7.0 mi WSW 3.5 mph - N/A   Mostly Cloudy
2:00 AM 71.1 °F - 71.1 °F 100% 29.97 in 7.0 mi WSW 3.5 mph - N/A   Scattered Clouds
2:52 AM 71.1 °F - 70.0 °F 96% 29.97 in 9.0 mi Calm Calm - N/A   Clear
3:52 AM 70.0 °F - 69.1 °F 97% 29.97 in 3.0 mi Calm Calm - N/A   Scattered Clouds
4:09 AM 70.0 °F - 69.1 °F 97% 29.99 in 4.0 mi Calm Calm - N/A   Mostly Cloudy
4:25 AM 70.0 °F - 69.1 °F 97% 29.99 in 7.0 mi Calm Calm - N/A   Scattered Clouds
4:52 AM 69.1 °F - 69.1 °F 100% 29.99 in 7.0 mi South 3.5 mph - N/A   Partly Cloudy
5:26 AM 69.1 °F - 68.0 °F 96% 30.00 in 5.0 mi Calm Calm - N/A   Mostly Cloudy
5:34 AM 69.1 °F - 69.1 °F 100% 30.01 in 4.0 mi Calm Calm - N/A   Overcast
5:48 AM 69.8 °F - 68.0 °F 94% 30.01 in 1.5 mi North 3.5 mph - N/A   Overcast
5:52 AM 69.1 °F - 68.0 °F 96% 30.01 in 1.0 mi North 3.5 mph - N/A   Overcast
6:05 AM 69.1 °F - 68.0 °F 96% 30.01 in 4.0 mi Calm Calm - N/A   Overcast
6:14 AM 69.1 °F - 69.1 °F 100% 30.01 in 6.0 mi Calm Calm - N/A   Mostly Cloudy
6:28 AM 69.1 °F - 68.0 °F 96% 30.01 in 5.0 mi North - - N/A   Scattered Clouds
6:52 AM 69.1 °F - 68.0 °F 96% 30.01 in 6.0 mi Calm Calm - N/A   Scattered Clouds
7:07 AM 69.1 °F - 68.0 °F 96% 30.01 in 6.0 mi Calm Calm - N/A   Mostly Cloudy
7:16 AM 70.0 °F - 69.1 °F 97% 30.01 in 7.0 mi Calm Calm - N/A   Scattered Clouds
7:52 AM 71.1 °F - 69.1 °F 93% 30.01 in 10.0 mi SSE 3.5 mph - N/A   Clear
8:52 AM 75.0 °F - 68.0 °F 79% 30.00 in 10.0 mi South 4.6 mph - N/A   Clear
9:52 AM 79.0 °F - 70.0 °F 74% 29.98 in 10.0 mi SSW 4.6 mph - N/A   Clear
10:52 AM 82.9 °F 87.5 °F 71.1 °F 67% 29.99 in 10.0 mi SW 6.9 mph 16.1 mph N/A   Partly Cloudy
11:52 AM 86.0 °F 92.2 °F 72.0 °F 63% 29.98 in 10.0 mi Variable 6.9 mph - N/A   Clear
12:52 PM 88.0 °F 94.7 °F 72.0 °F 59% 29.98 in 10.0 mi WSW 9.2 mph 18.4 mph N/A   Scattered Clouds
1:52 PM 89.1 °F 96.0 °F 72.0 °F 57% 29.95 in 10.0 mi SSW 9.2 mph - N/A   Partly Cloudy
2:52 PM 90.0 °F 96.4 °F 71.1 °F 54% 29.93 in 10.0 mi SSW 10.4 mph - N/A   Clear
3:52 PM 89.1 °F 96.0 °F 72.0 °F 57% 29.92 in 10.0 mi SSW 11.5 mph - N/A   Partly Cloudy